Groton, South Dakota, United States (57445)
Lat: 45.45N, Lon: 98.1W
Wx Zone: SDZ006
Local Info
Past Weather Observations for Wednesday, October 29, 2014

NOTE: This archive is for the closest National Weather Service station to Groton. Information may differ from the station used for current weather conditions.

Click here for Long-term Archive

Time Weather Temperature Dewpoint Humidity Pressure Winds Precip Visibility
23:53
Overcast
45°F / 7°C 37°F / 3°C 76% 29.98 in
(1015 mb)
Calm - 10SM
22:53
Overcast
46°F / 8°C 36°F / 2°C 66% 29.98 in
(1015 mb)
NNE 3.5 mph
(NNE 6 kph)
- 10SM
21:53
Overcast
46°F / 8°C 36°F / 2°C 66% 29.98 in
(1015 mb)
S 8.1 mph
(S 13 kph)
- 10SM
20:53
Overcast
46°F / 8°C 36°F / 2°C 66% 29.98 in
(1015 mb)
S 9.2 mph
(S 15 kph)
- 10SM
19:53
Overcast
46°F / 8°C 36°F / 2°C 66% 29.98 in
(1015 mb)
S 10.4 mph
(S 17 kph)
0.00 in
(0.00 mm)
10SM
18:53
Overcast
46°F / 8°C 34°F / 1°C 62% 29.98 in
(1015 mb)
SSE 8.1 mph
(SSE 13 kph)
- 10SM
17:53
Overcast
48°F / 9°C 30°F / -1°C 50% 30.01 in
(1016 mb)
S 4.6 mph
(S 7 kph)
- 10SM
16:53
Overcast
48°F / 9°C 30°F / -1°C 50% 30.01 in
(1016 mb)
S 5.8 mph
(S 9 kph)
- 10SM
15:53
Mostly Cloudy
50°F / 10°C 28°F / -2°C 43% 30.01 in
(1016 mb)
S 9.2 mph
(S 15 kph)
- 10SM
14:53
Clear
54°F / 12°C 28°F / -2°C 38% 30.04 in
(1017 mb)
SSE 11.5 mph
(SSE 19 kph)
- 10SM
13:53
Clear
48°F / 9°C 30°F / -1°C 50% 30.04 in
(1017 mb)
S 11.5 mph
(S 19 kph)
- 10SM
12:53
Clear
46°F / 8°C 28°F / -2°C 50% 30.06 in
(1018 mb)
S 10.4 mph
(S 17 kph)
- 10SM
11:53
Clear
46°F / 8°C 30°F / -1°C 53% 30.09 in
(1019 mb)
S 11.5 mph
(S 19 kph)
- 10SM
10:53
Clear
43°F / 6°C 30°F / -1°C 61% 30.12 in
(1020 mb)
S 9.2 mph
(S 15 kph)
- 10SM
09:53
Clear
43°F / 6°C 30°F / -1°C 61% 30.15 in
(1021 mb)
Variable 4.6 mph
(Variable 7 kph)
- 10SM
09:06
Partly Cloudy
37°F / 3°C 28°F / -2°C 70% 30.15 in
(1021 mb)
SE 5.8 mph
(SE 9 kph)
- 10SM
08:53
Mostly Cloudy
37°F / 3°C 28°F / -2°C 70% 30.15 in
(1021 mb)
SE 5.8 mph
(SE 9 kph)
- 10SM
07:53
Overcast
36°F / 2°C 30°F / -1°C 81% 30.15 in
(1021 mb)
S 3.5 mph
(S 6 kph)
- 10SM
06:53
Overcast
34°F / 1°C 30°F / -1°C 87% 30.15 in
(1021 mb)
SW 4.6 mph
(SW 7 kph)
- 10SM
05:53
Overcast
36°F / 2°C 28°F / -2°C 75% 30.15 in
(1021 mb)
NE 4.6 mph
(NE 7 kph)
- 10SM
04:53
Overcast
34°F / 1°C 28°F / -2°C 81% 30.15 in
(1021 mb)
Calm - 10SM
03:53
Mostly Cloudy
28°F / -2°C 25°F / -4°C 86% 30.15 in
(1021 mb)
W 4.6 mph
(W 7 kph)
- 10SM
02:53
Clear
28°F / -2°C 25°F / -4°C 86% 30.15 in
(1021 mb)
NW 4.6 mph
(NW 7 kph)
- 10SM
01:53
Partly Cloudy
32°F / 0°C 27°F / -3°C 80% 30.15 in
(1021 mb)
NNW 4.6 mph
(NNW 7 kph)
- 10SM
00:53
Partly Cloudy
32°F / 0°C 27°F / -3°C 80% 30.15 in
(1021 mb)
NNW 6.9 mph
(NNW 11 kph)
- 10SM
Time Weather Temperature Dewpoint Humidity Pressure Winds Precip Visibility


Weather for websites

WeatherForYou.com, LLC is not responsible for any damages or problems caused by this service. Current weather conditions are obtained from the closest station including government and personal stations which may have varying degrees of accuracy. Weather forecasts are derived from the NOAA NDFD. Like all things, this site belongs to Jesus Christ... He just trusts me to maintain it. If you have any questions or comments email webmaster@weatherforyou.com

Copyright © 2014, WeatherForYou.com LLC. All rights reserved.